Temp_Advection
nan nan nan nan nan nan nan nan nan nan nan nan nan nan nan nan nan nan nan nan nan nan nan nan nan nan nan nan nan nan nan nan nan nan nan nan nan nan nan nan nan nan nan nan nan nan nan
nan 0 0 0 -0 -0 -0 -0 0 0 0 -0 0 -0 -0 -0 -0 -0 -0 -0 -0 -0 0 0 -0 -0 0 -0 -0 -0 -0 -0 -0 0 0 0 0 -0 -0 -0 -0 -0 0 -0 0 0 nan
nan 0 0 0 0 -0 -0 -0 0 -0 -0 0 -0 0 0 -0 -0 -0 -0 -0 -0 -0 -0 0 0 0 -0 -0 -0 -0 -0 -0 -0 0 0 0 0 -0 -0 -0 -0 0 0 0 0 0 nan
nan 1 0 0 0 -0 -0 0 0 -0 -0 0 0 0 0 0 -0 -0 -0 -0 -0 -0 0 0 0 0 -0 -0 0 -0 -0 -0 0 0 0 0 0 -0 -0 -0 0 0 0 0 -0 -0 nan
nan 1 0 0 0 0 0 0 0 0 0 -0 0 0 0 0 0 -0 -0 -0 -0 -0 -0 -0 -0 -0 -0 -0 -0 -0 -0 0 0 0 0 0 0 -0 -0 -0 0 0 0 -0 0 0 nan
nan 0 1 0 0 -0 0 0 -0 0 0 0 0 0 0 -0 0 0 0 -0 0 -0 -0 0 0 0 -0 -0 0 0 0 0 0 0 0 0 0 -0 -0 -0 0 0 -0 -0 0 0 nan
nan 0 1 0 0 0 0 0 0 -0 -0 -0 0 0 0 0 0 0 -0 -0 -0 -0 -0 -0 0 0 -0 -0 -0 0 0 0 0 -0 0 0 -0 -0 0 0 0 -0 -0 0 0 -0 nan
nan 0 0 1 0 1 1 1 1 0 0 0 0 0 0 0 0 -0 -0 -0 -0 -0 -0 0 -0 -0 -0 -0 -0 -0 -0 -0 -0 -0 0 -0 0 -0 -0 0 -0 0 0 0 0 0 nan
nan 0 0 1 0 0 1 1 1 1 1 1 1 1 0 0 0 -0 -0 -0 0 0 0 -0 -0 -0 -0 -0 -0 -0 -0 -0 0 0 -0 0 -0 0 0 -0 -0 0 0 -0 0 -0 nan
nan 0 0 0 0 -0 0 0 0 1 1 1 1 1 0 0 -0 -0 -0 -0 0 0 0 -0 0 -0 -0 0 0 0 -0 -0 0 0 -0 0 -0 0 0 0 -0 0 -0 -0 -0 0 nan
nan 0 0 0 -0 -0 -0 0 0 0 0 0 -0 -0 -0 -0 -0 -0 0 -0 -0 0 0 -0 -0 0 0 0 0 0 0 -0 -0 0 -0 -0 0 0 -0 0 0 -0 -0 -0 0 0 nan
nan 0 0 0 0 0 -0 0 0 0 0 0 -0 -0 -0 -0 -0 0 -0 -0 0 0 0 0 -0 -0 0 0 0 0 0 0 -0 -0 -0 -0 -0 -0 0 0 -0 -0 -0 -0 0 0 nan
nan 0 0 0 0 0 0 0 0 0 0 0 -0 -0 -0 -0 -0 -0 -0 0 -0 1 0 0 0 -0 0 -0 -0 0 0 0 0 -0 -0 -0 -0 -0 0 -0 -0 0 0 0 0 0 nan
nan 0 0 0 0 0 0 0 0 0 0 0 -0 -0 0 0 -0 0 0 -0 1 -0 0 0 -0 -0 -0 -0 0 0 0 0 -0 -0 0 0 -0 0 -0 0 -0 0 0 -0 0 0 nan
nan 0 0 0 0 0 0 0 0 0 0 0 0 0 0 0 -0 0 -0 0 -0 -0 -0 0 -0 -0 -0 -0 0 0 -0 -0 -0 -1 -0 0 -0 -0 -0 -0 -0 -0 0 0 0 -0 nan
nan 0 0 0 -0 0 0 0 -0 0 0 -0 0 0 0 -0 -0 -0 0 0 0 -0 0 -0 0 -0 0 0 -0 -0 -0 -0 -0 -0 -0 -0 0 -0 0 -0 -0 0 -0 -0 0 0 nan
nan 0 0 0 -0 0 -0 0 -0 0 0 0 -0 0 0 0 0 -0 0 -0 0 0 0 -0 -0 0 0 0 -0 -0 -0 -0 -0 -0 -0 -0 0 -0 0 -0 -0 -0 -0 -0 -0 0 nan
nan 0 0 0 -0 0 0 0 -0 0 -0 -0 0 -0 0 0 -0 -0 0 -0 -0 -0 -0 0 -0 -0 0 0 -0 -0 -0 0 0 -0 -0 -0 0 0 0 -0 -0 -0 -0 -0 0 0 nan
nan 0 0 0 -0 -0 0 -0 -0 -0 -0 -0 -0 -0 -0 -0 -0 0 0 -0 -0 -0 -0 -0 -0 -0 0 0 0 0 0 0 -0 -0 -0 -0 -0 0 0 -0 0 0 0 -0 -0 -0 nan
nan 0 0 0 0 -0 -0 -0 -0 -0 -0 -0 -0 -0 -0 -1 -0 -0 -0 -0 -0 -0 0 -0 -0 -0 -0 0 -0 0 -0 -0 0 0 -0 -0 -0 -0 -0 -0 -0 -0 -0 0 0 -0 nan
nan 0 -0 0 0 -0 -0 -0 -0 -0 -0 -0 -1 -0 -0 -0 -0 -0 -0 -0 -0 -0 -0 -0 0 -1 -0 -0 -0 -0 -0 -0 -0 -0 -0 0 -0 -0 -0 -0 -0 -0 -0 -0 -0 -0 nan
nan -0 -0 0 0 -0 -0 -0 -0 -0 -0 -0 -0 -0 -0 -0 -0 0 -0 -0 -0 -0 -0 -0 -0 -0 -0 -0 -0 -0 -0 0 -0 -0 0 -0 -0 -0 -0 -0 -0 -0 0 -0 -1 0 nan
nan -0 -0 0 0 -0 -0 -0 -0 -0 -0 -1 -0 -0 -0 0 0 -0 -0 -0 -0 -0 -0 -0 -0 -0 -0 -0 1 -0 -0 -0 -0 -0 -0 -0 -0 0 -0 -0 0 0 0 -0 0 -0 nan
nan 0 -0 0 0 -0 -0 -0 -0 -0 -1 -1 -0 -0 -0 0 -0 0 0 -0 -0 -0 -0 -1 -0 -0 -0 -1 0 0 -0 -0 -0 -0 -0 -0 -0 -0 0 -0 -0 -0 0 0 -0 -0 nan
nan -0 -0 0 0 -0 -0 -0 -0 -0 -1 -1 -0 -0 -0 -0 -0 -0 0 -0 -0 -0 -0 -0 -0 -0 -0 -0 -0 0 0 0 0 -0 -0 -0 0 0 0 -0 -0 0 -0 0 0 0 nan
nan -1 0 0 -0 -0 -0 -0 -0 -0 -0 -0 -0 -0 -0 -0 -0 -0 0 0 0 -0 -0 -0 -1 -0 -0 -0 -0 -0 -0 -0 -0 -0 -0 -0 -0 -0 0 0 -0 -0 -0 0 -0 -0 nan
nan -0 0 0 -0 -0 -0 -0 -0 -0 -0 -0 -0 -0 -0 -0 -0 -0 -0 0 0 0 -0 -0 -1 -1 -0 0 0 0 0 -0 -0 -0 -0 -0 -0 0 0 0 -0 -0 -0 -0 -0 0 nan
nan 0 0 0 -0 -0 -0 -0 -0 -0 -0 -0 -0 -0 -0 -0 0 -0 0 0 0 -0 0 -0 -0 -0 -0 -0 -0 0 0 -0 -0 -0 -0 0 -0 -0 -0 0 0 -0 -0 -0 0 0 nan
nan nan nan nan nan nan nan nan nan nan nan nan nan nan nan nan nan nan nan nan nan nan nan nan nan nan nan nan nan nan nan nan nan nan nan nan nan nan nan nan nan nan nan nan nan nan nan
Wind_Speed
13 16 16 17 19 16 17 22 26 23 22 21 21 24 24 24 22 16 16 14 13 17 15 14 12 9 9 5 8 10 14 13 6 5 9 12 18 15 11 6 6 8 2 20 15 5 2
13 14 17 17 19 17 20 22 25 23 23 22 22 23 23 24 22 18 14 15 18 18 16 15 11 9 9 2 6 8 5 6 9 10 6 6 10 10 12 8 15 7 15 4 20 4 1
14 16 17 19 18 18 21 25 24 24 23 22 23 24 25 24 22 20 15 17 17 17 16 11 6 6 6 9 11 10 11 10 4 12 17 6 7 9 4 9 14 6 11 15 7 3 4
14 17 19 19 19 20 23 24 25 25 24 23 23 25 26 24 23 20 14 15 18 10 7 3 6 6 4 3 7 7 9 6 7 8 6 8 6 15 9 7 10 11 4 11 13 5 5
16 17 19 19 19 20 24 24 24 24 24 24 25 26 26 25 21 15 12 13 4 7 6 6 5 3 2 4 7 5 1 2 8 6 6 3 1 6 15 8 5 9 10 9 10 13 3
17 18 18 21 19 22 23 25 24 25 25 25 26 26 26 21 18 13 9 3 3 4 5 3 2 1 3 4 4 1 5 9 3 4 2 3 2 3 7 7 7 14 10 8 12 10 10
16 17 19 20 19 22 24 23 24 25 26 25 25 26 24 18 13 7 9 1 1 1 1 1 2 1 1 7 3 2 4 8 3 1 2 1 4 3 7 11 3 1 12 11 7 5 11
16 16 19 20 20 23 23 24 24 24 25 26 26 26 20 14 5 5 8 3 3 2 1 2 4 4 2 4 2 4 4 3 3 2 2 2 2 4 7 12 7 3 11 9 5 5 8
15 16 19 20 22 23 24 25 26 26 27 27 28 24 15 10 2 4 5 7 8 2 2 2 2 0 2 1 0 3 7 4 3 2 1 3 1 3 3 8 6 4 6 10 7 7 1
15 17 19 20 22 24 25 26 26 27 27 28 28 14 12 6 2 3 3 6 6 3 4 2 2 1 0 1 1 1 7 1 1 2 2 2 2 3 2 5 7 1 8 17 13 14 7
14 17 18 20 21 24 25 27 27 28 28 27 19 11 10 8 3 1 4 4 4 2 4 2 1 1 1 2 1 1 6 2 2 1 2 4 1 2 2 3 9 2 6 2 10 6 5
15 17 17 17 20 22 25 28 28 27 28 27 11 8 8 8 7 3 6 3 2 5 3 3 1 1 1 2 1 2 3 3 2 2 3 2 4 1 1 9 7 8 3 6 6 4 4
15 16 16 16 19 21 25 28 28 27 28 25 3 5 8 6 4 5 6 3 4 5 1 3 2 2 3 3 3 3 4 2 3 3 3 6 3 3 3 6 3 5 4 2 4 4 3
16 14 14 16 19 20 24 26 27 27 26 21 3 5 15 5 3 4 5 2 8 3 4 1 1 3 3 6 4 4 3 4 2 5 2 3 4 2 2 1 3 4 4 2 3 6 5
16 13 13 17 18 19 22 24 25 26 26 16 6 3 13 10 1 3 2 5 3 2 4 5 1 1 2 4 3 4 6 4 7 7 4 3 3 1 1 5 2 5 4 4 2 2 3
16 12 12 16 17 17 20 22 23 25 25 11 2 2 13 8 2 2 3 2 2 2 4 3 3 3 3 3 4 5 6 4 6 8 3 4 3 0 3 5 3 1 6 2 1 3 3
16 10 12 15 14 16 19 20 21 23 23 9 1 2 13 7 2 2 3 3 3 8 12 3 3 3 4 2 5 3 2 3 8 8 6 4 2 1 6 3 4 4 2 2 1 1 3
15 9 11 13 13 15 17 18 19 20 21 9 0 2 13 6 3 3 2 4 7 7 9 3 3 6 5 3 3 4 4 5 12 11 7 5 2 3 2 5 5 2 5 4 3 3 2
14 10 10 12 11 14 15 15 17 18 20 9 1 2 9 6 3 3 4 2 2 5 5 6 4 9 9 4 4 3 3 3 14 9 7 6 1 3 2 3 3 4 4 4 3 3 1
15 10 10 9 9 12 12 13 15 15 17 6 1 2 4 8 4 2 4 4 6 8 1 5 3 6 6 2 2 5 7 3 6 7 6 10 1 3 4 3 5 4 6 3 4 2 1
16 10 9 7 7 7 10 11 13 14 13 4 4 2 2 2 3 3 3 4 5 7 5 8 1 11 7 3 5 7 5 5 2 3 2 3 4 4 7 7 5 8 15 11 5 4 4
17 12 8 6 5 5 8 11 13 14 9 9 3 3 3 2 3 2 5 4 4 5 3 4 7 14 10 4 2 5 6 2 3 4 3 0 3 4 3 4 7 4 12 14 14 5 2
19 14 9 6 5 1 8 10 13 13 13 7 4 5 3 3 2 2 1 3 3 6 5 6 8 8 8 4 16 23 17 14 3 6 8 5 3 1 1 2 4 2 10 15 8 5 6
20 15 10 8 6 4 9 9 12 12 16 13 8 4 3 1 1 1 1 2 3 4 3 10 11 5 6 27 21 2 4 9 7 6 11 5 3 2 1 1 2 2 3 10 12 8 5
21 17 12 9 9 8 9 8 10 11 13 13 13 5 3 2 1 2 2 3 9 9 3 5 3 12 17 14 5 3 2 2 2 2 5 5 2 2 1 1 4 2 2 4 7 5 7
24 19 14 13 10 10 9 7 9 9 10 11 12 11 3 5 3 0 1 2 3 4 5 4 13 9 11 1 3 3 1 1 4 7 1 1 2 3 2 1 1 1 4 3 5 1 1
25 21 16 15 11 11 9 8 8 8 9 9 9 11 4 2 2 3 2 1 3 3 1 5 14 10 15 4 3 3 2 1 2 3 4 3 3 2 0 1 3 3 5 1 2 3 4
28 23 19 16 12 12 10 8 7 7 8 7 8 10 8 2 3 0 2 1 1 3 2 8 3 5 6 5 3 2 2 2 2 2 0 1 1 1 1 1 2 5 3 2 2 4 2
31 25 22 17 12 11 10 7 7 7 6 6 6 7 6 3 4 4 5 3 1 1 3 5 0 2 5 3 3 3 1 2 2 2 2 1 2 2 3 3 3 4 1 3 2 5 5
Wind_Direction
334 336 336 339 341 347 354 334 332 337 342 338 335 333 332 327 331 327 323 315 303 308 305 299 297 281 263 257 254 283 284 290 242 224 216 223 201 200 204 191 202 217 203 220 238 239 54
331 333 337 336 339 350 347 329 332 336 339 337 336 334 334 327 329 327 320 317 306 302 298 296 290 273 240 264 293 306 305 344 244 239 242 214 188 219 226 227 191 204 217 228 235 235 222
334 334 340 336 340 348 335 332 336 337 333 337 331 331 331 328 327 324 315 315 309 301 300 292 261 242 237 264 291 281 287 298 300 235 237 271 252 230 239 219 229 237 185 228 260 202 227
333 337 341 339 337 343 331 335 336 336 336 334 333 329 329 328 326 323 324 322 313 328 315 203 196 175 237 299 304 295 283 264 232 237 217 225 266 241 246 245 182 207 173 194 228 161 227
340 339 338 337 334 334 333 337 336 336 338 334 332 329 327 330 330 331 328 323 9 16 70 123 147 164 307 345 4 348 359 229 178 197 187 178 207 215 208 226 181 189 192 191 203 189 157
344 339 340 338 341 331 336 336 339 336 334 336 333 329 327 334 332 330 340 346 47 67 89 112 146 125 38 16 344 257 141 149 131 130 180 183 148 201 187 187 202 188 174 175 196 188 202
340 337 338 336 333 332 339 342 339 340 338 334 330 330 332 337 339 350 5 131 305 295 355 54 102 96 323 14 49 260 235 133 78 63 205 186 209 240 209 173 95 270 185 178 182 199 179
333 334 336 332 329 335 343 343 343 341 339 338 333 333 334 340 351 16 25 55 16 312 26 353 245 267 307 351 63 144 160 109 216 146 238 217 107 312 242 122 118 123 188 180 152 163 180
329 331 332 331 330 340 343 344 344 344 345 341 340 337 341 345 43 29 43 29 7 347 89 348 61 267 234 299 16 182 189 178 170 222 32 134 289 348 166 130 137 88 220 201 146 151 78
322 325 328 330 334 340 342 344 346 344 346 348 343 352 351 10 22 3 26 20 346 344 73 313 301 326 223 171 96 186 188 186 343 244 192 40 236 73 45 139 150 309 332 209 154 158 183
315 320 328 334 337 340 344 344 346 344 346 350 347 356 0 16 19 351 349 341 343 303 61 264 16 271 166 171 132 152 168 174 178 295 69 245 12 76 139 110 129 136 307 295 186 139 121
308 316 327 330 332 338 344 345 346 346 346 349 346 358 11 27 15 357 349 332 312 49 355 350 350 32 75 230 174 119 146 125 101 84 356 338 317 351 40 115 103 99 339 191 147 115 195
301 310 324 324 329 337 341 341 345 346 347 349 353 25 15 28 2 354 337 297 38 86 140 296 252 173 170 208 217 173 168 149 147 78 332 345 330 313 102 97 95 94 48 131 151 163 186
290 305 320 319 326 337 340 341 343 347 348 349 170 57 22 1 345 328 332 26 62 213 280 19 165 188 207 182 203 195 146 183 139 96 114 128 335 186 179 332 162 117 150 297 161 174 156
282 296 315 318 329 341 342 342 343 348 348 349 198 302 356 1 58 348 335 45 184 281 307 306 174 203 247 210 206 180 199 199 185 178 138 126 292 302 290 123 137 168 167 128 107 339 104
271 285 307 316 328 342 342 342 344 347 349 356 206 251 356 7 72 10 69 49 288 208 306 291 303 176 303 211 185 176 195 187 190 187 150 220 72 199 130 115 243 28 151 79 41 123 141
259 275 300 314 331 343 342 343 346 346 350 358 170 119 357 356 10 70 75 3 316 322 10 261 321 311 304 224 195 202 233 211 195 180 118 133 107 2 134 219 192 145 163 116 166 145 147
245 262 291 311 331 338 343 346 350 347 350 1 346 49 3 358 47 20 37 328 329 321 351 319 242 335 339 334 211 234 241 219 179 148 161 198 137 137 167 236 219 211 174 157 135 177 71
233 250 283 302 326 336 345 352 354 350 353 359 58 78 25 29 74 0 351 307 326 349 343 358 323 3 335 335 330 312 6 347 178 152 151 176 254 100 88 317 125 204 184 154 95 79 204
224 237 273 298 321 338 353 6 2 357 357 11 27 41 40 61 56 51 345 351 326 350 154 346 288 358 340 315 332 342 19 88 179 165 170 179 161 216 180 198 155 184 159 149 114 115 180
216 225 256 291 313 356 13 22 12 9 9 19 45 87 73 336 5 4 341 355 322 351 356 330 53 11 346 305 341 0 2 109 92 321 23 165 230 196 274 285 232 184 167 168 154 203 162
209 213 241 264 283 3 36 34 30 27 28 42 65 121 113 71 324 347 356 12 335 336 303 336 356 341 335 313 28 312 355 318 147 145 157 206 289 163 272 250 169 177 193 184 196 195 252
205 207 223 235 247 15 63 49 44 41 46 48 72 107 143 3 10 94 271 286 307 331 258 261 332 326 319 356 310 287 268 257 258 155 173 184 242 160 292 356 106 256 192 189 191 178 165
201 202 208 220 213 138 81 61 51 44 51 48 57 100 123 176 124 160 251 288 279 311 247 303 311 302 326 313 314 307 197 237 221 218 194 175 209 196 122 4 214 235 294 188 193 196 193
200 196 203 213 190 128 102 79 61 45 53 45 46 54 109 149 187 213 285 281 307 317 299 289 309 310 314 319 352 11 22 68 5 123 185 216 150 88 126 274 306 69 99 138 181 244 204
195 191 199 204 172 130 115 95 73 54 52 48 47 40 68 134 231 40 342 334 344 318 343 298 334 352 357 298 354 49 61 297 328 349 4 102 83 120 143 141 328 309 319 274 181 308 292
187 191 194 203 164 140 130 111 82 62 51 46 40 40 48 76 106 61 54 342 356 348 275 305 335 346 9 358 57 29 339 288 40 5 328 343 358 92 59 141 310 296 299 291 172 232 324
190 186 191 195 161 146 140 120 93 70 50 45 28 30 38 79 96 97 323 299 357 38 46 320 344 9 350 20 360 12 343 323 328 275 284 218 35 318 191 68 70 355 324 73 271 352 50
189 180 189 182 167 148 145 133 103 89 63 49 48 32 42 79 91 55 60 54 201 172 327 351 62 285 11 337 5 304 315 348 290 329 345 43 177 233 174 225 268 311 292 352 31 87 89
Height
1545 1542 1541 1539 1535 1531 1528 1524 1519 1514 1511 1507 1504 1500 1495 1491 1488 1484 1482 1479 1478 1477 1475 1474 1474 1473 1474 1474 1473 1473 1473 1473 1473 1475 1476 1477 1478 1481 1481 1484 1484 1484 1486 1489 1488 1489 1489
1544 1541 1539 1537 1534 1530 1526 1522 1517 1512 1509 1505 1501 1497 1493 1488 1485 1481 1478 1476 1475 1473 1471 1471 1471 1471 1473 1473 1472 1471 1471 1472 1471 1473 1475 1476 1475 1479 1480 1480 1481 1482 1486 1487 1487 1486 1490
1541 1539 1537 1535 1532 1528 1524 1519 1514 1510 1506 1503 1499 1495 1490 1486 1481 1478 1475 1473 1471 1469 1468 1466 1468 1469 1471 1472 1470 1469 1469 1470 1471 1471 1473 1474 1476 1479 1479 1481 1479 1481 1484 1485 1486 1485 1489
1540 1537 1536 1533 1530 1526 1522 1517 1512 1507 1503 1500 1496 1492 1487 1482 1478 1475 1473 1471 1468 1466 1464 1464 1465 1468 1470 1469 1468 1468 1468 1468 1470 1470 1471 1473 1475 1478 1479 1477 1475 1480 1483 1485 1482 1485 1489
1537 1537 1534 1532 1528 1524 1520 1516 1510 1505 1501 1497 1493 1488 1483 1478 1475 1471 1469 1467 1466 1465 1464 1465 1466 1466 1468 1468 1468 1467 1467 1467 1468 1469 1470 1471 1474 1476 1476 1476 1475 1475 1475 1480 1481 1483 1486
1535 1535 1532 1529 1526 1522 1518 1514 1508 1503 1499 1495 1490 1485 1479 1475 1472 1469 1468 1466 1466 1465 1466 1466 1466 1470 1468 1469 1467 1467 1467 1467 1469 1470 1471 1471 1473 1472 1466 1470 1467 1464 1470 1473 1476 1481 1484
1534 1532 1530 1528 1525 1519 1515 1511 1506 1501 1497 1492 1487 1481 1476 1473 1471 1469 1469 1467 1469 1468 1466 1467 1467 1466 1468 1468 1467 1468 1467 1464 1469 1472 1470 1471 1469 1465 1461 1466 1472 1471 1467 1469 1477 1477 1480
1532 1530 1527 1526 1522 1517 1513 1509 1504 1499 1494 1489 1483 1477 1474 1472 1470 1469 1468 1467 1466 1467 1466 1465 1466 1466 1467 1467 1467 1467 1469 1470 1470 1471 1471 1472 1464 1467 1465 1466 1471 1474 1469 1473 1476 1477 1479
1530 1528 1525 1523 1520 1515 1511 1507 1502 1497 1491 1486 1480 1475 1472 1470 1469 1469 1469 1468 1466 1465 1466 1466 1465 1465 1466 1467 1467 1467 1468 1468 1470 1470 1470 1467 1466 1465 1460 1464 1469 1471 1475 1472 1471 1478 1482
1528 1525 1522 1521 1518 1513 1509 1506 1501 1495 1489 1484 1478 1474 1471 1470 1471 1470 1469 1468 1467 1467 1477 1468 1467 1466 1466 1465 1467 1467 1467 1470 1469 1469 1470 1465 1465 1464 1463 1463 1464 1472 1478 1467 1468 1470 1476
1525 1523 1520 1519 1516 1511 1507 1503 1499 1493 1487 1482 1477 1474 1471 1468 1470 1470 1470 1466 1466 1466 1486 1467 1466 1465 1464 1466 1467 1467 1467 1468 1469 1468 1471 1474 1465 1463 1465 1465 1464 1473 1477 1474 1463 1474 1477
1522 1520 1518 1517 1513 1509 1505 1501 1496 1491 1485 1480 1476 1473 1471 1470 1469 1469 1468 1466 1466 1477 1471 1469 1467 1466 1466 1465 1466 1466 1467 1468 1468 1469 1467 1467 1464 1464 1465 1467 1470 1475 1476 1471 1470 1472 1478
1519 1517 1516 1515 1511 1507 1503 1499 1494 1489 1483 1478 1475 1474 1471 1470 1471 1469 1467 1467 1475 1478 1465 1464 1464 1465 1466 1466 1465 1465 1466 1469 1472 1482 1487 1474 1471 1466 1465 1468 1473 1475 1477 1461 1467 1473 1475
1516 1515 1513 1512 1509 1504 1501 1497 1492 1487 1481 1476 1474 1473 1471 1470 1469 1468 1468 1469 1475 1464 1464 1461 1460 1464 1465 1464 1464 1464 1467 1467 1471 1479 1486 1483 1482 1469 1466 1467 1466 1474 1480 1476 1462 1469 1476
1513 1512 1511 1510 1506 1502 1499 1495 1490 1485 1480 1475 1473 1473 1472 1469 1469 1469 1469 1474 1475 1469 1465 1461 1459 1463 1464 1460 1463 1463 1464 1465 1466 1470 1481 1485 1477 1469 1467 1468 1469 1474 1473 1477 1479 1483 1466
1509 1509 1509 1508 1504 1501 1498 1494 1488 1484 1478 1474 1473 1472 1472 1470 1469 1469 1470 1467 1470 1466 1462 1462 1455 1459 1449 1458 1462 1461 1461 1458 1460 1462 1463 1474 1478 1469 1468 1470 1472 1469 1474 1477 1483 1475 1466
1506 1506 1506 1506 1502 1499 1496 1492 1487 1482 1477 1473 1473 1472 1473 1470 1470 1470 1472 1469 1468 1466 1463 1460 1454 1452 1451 1454 1458 1458 1457 1456 1456 1460 1462 1470 1474 1474 1469 1468 1466 1470 1472 1474 1476 1476 1472
1501 1503 1504 1503 1500 1498 1495 1491 1486 1481 1476 1473 1472 1474 1473 1472 1472 1472 1476 1472 1470 1465 1463 1459 1458 1454 1452 1450 1453 1455 1453 1451 1454 1457 1465 1467 1470 1473 1466 1466 1464 1463 1465 1469 1478 1471 1486
1498 1500 1501 1501 1498 1496 1493 1490 1486 1481 1476 1473 1472 1474 1475 1472 1481 1476 1474 1471 1468 1467 1464 1460 1460 1459 1456 1454 1450 1447 1446 1451 1453 1455 1460 1463 1472 1471 1470 1464 1463 1464 1465 1465 1468 1471 1482
1494 1496 1498 1498 1496 1494 1492 1488 1485 1480 1476 1474 1473 1478 1476 1475 1478 1479 1477 1476 1470 1467 1464 1463 1462 1457 1455 1452 1453 1450 1446 1455 1457 1458 1459 1460 1465 1458 1460 1456 1454 1462 1462 1465 1466 1473 1471
1489 1492 1495 1495 1495 1493 1490 1487 1484 1480 1476 1475 1474 1480 1481 1487 1481 1482 1479 1478 1475 1471 1468 1465 1460 1463 1461 1455 1453 1452 1450 1458 1461 1462 1463 1463 1468 1460 1453 1448 1450 1450 1453 1461 1471 1466 1462
1485 1488 1491 1492 1492 1491 1489 1486 1483 1480 1477 1475 1476 1478 1481 1482 1483 1482 1483 1482 1479 1476 1473 1467 1464 1465 1461 1457 1458 1456 1457 1451 1454 1463 1464 1466 1458 1454 1450 1447 1445 1448 1449 1453 1455 1461 1459
1479 1484 1487 1489 1490 1489 1488 1485 1483 1481 1477 1475 1476 1477 1477 1483 1483 1484 1486 1482 1479 1477 1470 1469 1470 1466 1458 1458 1458 1453 1455 1453 1453 1455 1460 1462 1458 1456 1447 1445 1447 1449 1450 1453 1455 1458 1456
1475 1479 1483 1486 1488 1487 1485 1484 1483 1481 1478 1477 1476 1476 1477 1483 1482 1482 1483 1481 1478 1477 1475 1469 1467 1465 1459 1455 1448 1446 1448 1449 1451 1451 1452 1454 1455 1453 1450 1452 1455 1443 1442 1441 1446 1449 1450
1470 1474 1479 1483 1485 1484 1484 1483 1482 1481 1479 1478 1476 1476 1476 1481 1481 1481 1481 1479 1476 1473 1472 1470 1466 1465 1459 1455 1450 1447 1448 1446 1447 1446 1448 1449 1448 1451 1449 1448 1445 1441 1442 1444 1442 1446 1445
1464 1470 1475 1479 1481 1480 1481 1482 1481 1481 1479 1478 1477 1475 1475 1478 1481 1480 1480 1480 1480 1476 1471 1470 1466 1462 1460 1456 1456 1451 1462 1454 1451 1449 1445 1445 1446 1452 1457 1450 1445 1444 1441 1441 1443 1446 1442
1458 1464 1471 1475 1476 1477 1479 1480 1480 1479 1478 1478 1477 1475 1475 1476 1479 1480 1480 1481 1479 1478 1477 1474 1470 1464 1463 1459 1458 1464 1458 1456 1457 1456 1454 1453 1452 1454 1452 1457 1450 1445 1443 1442 1445 1451 1441
1453 1459 1466 1470 1473 1475 1476 1478 1478 1478 1477 1477 1476 1474 1475 1476 1479 1479 1479 1480 1480 1479 1480 1475 1472 1472 1470 1464 1462 1460 1460 1465 1461 1456 1454 1457 1458 1456 1454 1450 1451 1445 1443 1444 1445 1441 1440
1449 1454 1462 1466 1469 1472 1473 1475 1476 1476 1476 1475 1475 1474 1475 1476 1479 1479 1478 1478 1478 1477 1479 1479 1480 1480 1478 1476 1472 1467 1460 1468 1469 1459 1455 1454 1455 1456 1453 1451 1446 1445 1445 1445 1444 1444 1444